{"data":{"norad_id":53966,"intl_designator":"2022-125C","name":"STARLINK-4635","alt_names":[],"object_type":"PAYLOAD","status":"ACTIVE","operator":null,"country":"US","launch_date":"2022-10-05","launch_site_code":"AFWTR","launch_vehicle":null,"mission":null,"orbit_class":"UNKNOWN","rcs_meters":null,"size_class":null,"mass_kg":null,"dimensions":null,"purposes":["comms"],"wikipedia_slug":null,"has_3d_model":false,"image_url":null,"decayed_at":null,"tle_current":{"epoch":"2026-05-24T16:25:17.796864Z","epoch_age_seconds":109729,"freshness":"FRESH","line1":"1 53966U 22125C   26144.68423376  .00000096  00000+0  24146-4 0  9992","line2":"2 53966  53.2177 243.0434 0001322  93.1578 266.9565 15.08840429200795","mean_motion":15.08840429,"eccentricity":0.0001322,"inclination_deg":53.2177,"raan_deg":243.0434,"arg_perigee_deg":93.1578,"mean_anomaly_deg":266.9565,"bstar":2.4146e-5,"rev_number":20079,"period_min":95.43752754255,"perigee_km":538.82753406897,"apogee_km":540.65662129711,"semimajor_km":6917.879077683,"source":"CELESTRAK","updated_at":"2026-05-25T13:38:17.617009Z"}}}